Regional Weather Roundup
Issued by NWS

Home | Current Version | Previous Version | Text Only | Print | Product List | Glossary On
Versions: 1 2 3 4 5 6 7 8 9 10 11 12 13 14 15 16 17 18 19 20 21 22 23 24 25 26 27 28 29 30 31 32 33 34 35 36 37 38 39 40 41 42 43 44 45 46 47 48 49 50
000
ASUS44 KFWD 181310
RWRTX
NORTH TEXAS HOURLY WEATHER ROUNDUP
NATIONAL WEATHER SERVICE FORT WORTH TX
800 AM CDT WED OCT 18 2017

NOTE: "FAIR" INDICATES FEW OR NO CLOUDS BELOW 12,000 FEET WITH NO
SIGNIFICANT WEATHER AND/OR OBSTRUCTIONS TO VISIBILITY.

TXZ118-119-181400-
DALLAS/FORT WORTH METROPLEX

CITY           SKY/WX    TMP DP  RH WIND       PRES   REMARKS
DFW AIRPORT    PTCLDY    51  44  77 SE5       30.13S
DALLAS LOVE    PTCLDY    58  44  60 S9        30.15S
FTW MEACHAM    CLEAR     55  45  68 E7        30.14R
DAL-EXECUTIVE  CLEAR     52  44  74 SE6       30.15S
FTW-ALLIANCE   CLEAR     52  43  71 S3        30.14R
FTW-NAS-JRB    CLEAR     54  44  69 SE5       30.15R
FTW-SPINKS     CLEAR     54  43  66 S9        30.15S
ARLINGTON      CLEAR     45  43  93 CALM      30.15R
GRAND PRAIRIE  CLEAR     54  41  62 CALM      30.16S
ADDISON        CLEAR     55  45  67 SE9       30.16R
MESQUITE       CLEAR     46  43  87 CALM      30.17R
LANCASTER      CLEAR     43  40  89 CALM      30.17S
$$

TXZ091>094-102>105-117-120-121-131>134-181400-
NORTH CENTRAL TEXAS

CITY           SKY/WX    TMP DP  RH WIND       PRES   REMARKS
SHRMAN/DENISON CLEAR     53  45  74 S8        30.16S
GAINESVILLE    CLEAR     49  44  81 S7        30.15S
BOWIE          CLEAR     46  43  86 CALM      30.12R
BRIDGEPORT     CLEAR     42  42 100 CALM      30.14S
DECATUR        CLEAR     52  44  75 SE3       30.12S
DENTON         CLEAR     50  45  83 SE9       30.14S
MCKINNEY       CLEAR     46  45  96 CALM      30.16R
BONHAM         CLEAR     47  42  85 CALM      30.17R
GREENVILLE     CLEAR     50  45  81 CALM      30.17S
ROCKWALL       CLEAR     51  45  82 CALM      30.17R
TERRELL        CLEAR     48  42  80 CALM      30.17R
WAXAHACHIE     CLEAR     46  42  84 CALM      30.17S
CLEBURNE       CLEAR     50  45  81 S7        30.16S
GRANBURY       CLEAR     52  44  75 SE5       30.15S
$$

TXZ083>090-098>101-113>116-127>130-139>142-154-155-181400-
WESTERN NORTH TEXAS

CITY           SKY/WX    TMP DP  RH WIND       PRES   REMARKS
WICHITA FALLS  PTCLDY    47  43  86 S7        30.08S
WF-KICKAPOO    CLEAR     49  44  84 SE6       30.11S
VERNON         CLEAR     49  41  71 CALM      30.08R
ABILENE        CLEAR     56  42  59 S7        30.10R
ABILENE-DYESS  CLEAR     60  43  54 S10       30.08S
GRAHAM           N/A     51  43  76 SE5       30.10S
BRECKENRIDGE   CLEAR     55  42  63 S7        30.10R
CISCO          CLEAR     52  43  71 S13       30.11S
EASTLAND       CLEAR     42  40  93 S3        30.11S
RANGER         CLEAR     51  44  78 S9        30.12R
MINERAL WELLS  CLEAR     49  43  80 SE10      30.11S
STEPHENVILLE   CLEAR     46  42  85 S5        30.16R
COMANCHE       CLEAR     51  45  78 MISG      30.14S
BROWNWOOD      CLEAR     39  37  93 CALM      30.15R
COLEMAN        CLEAR     48  41  75 S5        30.14R
$$

TXZ143>147-156>162-174-175-181400-
CENTRAL TEXAS

CITY           SKY/WX    TMP DP  RH WIND       PRES   REMARKS
WACO           CLEAR     43  39  86 CALM      30.16S
WACO-TSTC      CLEAR     41  39  93 CALM      30.17S
WACO-MCGREGOR  CLEAR     47  41  80 S3        30.16S
HILLSBORO      CLEAR     51  43  73 SE5       30.16S
CORSICANA      CLEAR     48  46  93 SE5       30.18R
MEXIA          CLEAR     47  44  89 CALM      30.16S
HEARNE         CLEAR     42  42 100 CALM      30.18S
CAMERON        CLEAR     44  44  98 CALM      30.17R
TEMPLE         CLEAR     45  43  93 CALM      30.16S
KILLEEN        CLEAR     54  45  71 SE5       30.15R
KILLEEN-SKYLRK CLEAR     47  46  97 CALM      30.16S
FORT HOOD      CLEAR     49  43  79 CALM      30.12S
GATESVILLE     CLEAR     45  39  81 CALM      30.17S
HAMILTON       CLEAR     51  44  77 S5        30.16R
LAMPASAS       CLEAR     50  47  87 CALM      30.14S
$$

TXZ095>097-106>112-122>126-135>138-148>153-164>167-181400-
EAST TEXAS

CITY           SKY/WX    TMP DP  RH WIND       PRES   REMARKS
PARIS          CLEAR     44  42  93 E6        30.18S
SULPHUR SPRNGS CLEAR     49  43  79 SE3       30.19S
MOUNT PLEASANT CLEAR     43  42  97 CALM      30.20S
GILMER         CLEAR     43  41  94 CALM      30.19R
MINEOLA        CLEAR     41  39  93 CALM      30.18S
TYLER          CLEAR     47  41  80 CALM      30.17S
LONGVIEW       CLOUDY    45  44  97 CALM      30.18S
MARSHALL       CLEAR     42  41  93 CALM      30.21S
ATHENS         CLEAR     41  41 100 CALM      30.16F
PALESTINE        N/A     44  43  95 CALM      30.19S
JACKSONVILLE   CLEAR     52  47  82 CALM      30.19S
HENDERSON      CLEAR     40  39  95 CALM      30.20R
CENTER         SUNNY     47  46  95 N3        30.20R
NACOGDOCHES    CLEAR     41  39  93 CALM      30.19R
LUFKIN         CLEAR     45  44  97 CALM      30.18R
$$

SUPPLEMENTAL OBSERVATIONS (NWS FORT WORTH AREA)

CITY           SKY/WX    TMP DP  RH WIND       PRES   REMARKS
CADDO GRASSLND   N/A     48  43  81 S3          N/A
LBJ GRASSLAND    N/A     55  43  62 SE8         N/A
POSSUM KINGDOM   N/A     54  45  71 SE6         N/A
GRANBURY         N/A     54  43  66 SE6         N/A
MCGREGOR         N/A     46  41  81 SW3         N/A
TEMPLE           N/A     54  45  71 S1          N/A
$$

SUPPLEMENTAL OBSERVATIONS (NWS NORMAN AREA)

CITY           SKY/WX    TMP DP  RH WIND       PRES   REMARKS
GOODLETT         N/A     47  37  68 S5        30.06S
ODELL            N/A     51  44  78 SE6       30.09R
CROWELL          N/A     47  38  71 SW6       30.08S
KNOX CITY        N/A     47  39  74 S9        30.09S
SEYMOUR          N/A     50  42  73 S6        30.09S
MILLERS CREEK    N/A     48  39  71 SW3         N/A
$$

SUPPLEMENTAL OBSERVATIONS (NWS SAN ANGELO AREA)

CITY           SKY/WX    TMP DP  RH WIND       PRES   REMARKS
WEINERT          N/A     48  42  78 S5        30.10S
HASKELL          N/A     51  42  70 SE2       30.10R
THROCKMORTON     N/A     49  44  81 SE3       30.11S
STAMFORD         N/A     49  42  79 SW1       30.11R
CLYDE            N/A     52  41  67 S12       30.12R
HAMBY            N/A     54  39  58 S5          N/A
$$

SUPPLEMENTAL OBSERVATIONS (NWS SHREVEPORT AREA)

CITY           SKY/WX    TMP DP  RH WIND       PRES   REMARKS
TEXARKANA        N/A     39  37  93 CALM        N/A
LINDEN           N/A     43  39  87 CALM        N/A
LUFKIN           N/A     45  43  93 MISG        N/A
N SABINE NF      N/A     43  41  93 MISG        N/A
$$

SUPPLEMENTAL OBSERVATIONS ARE A COLLECTION OF AUTOMATED INSTRUMENTS
THAT ARE MAINTAINED BY A VARIETY OF FEDERAL AND STATE AGENCIES.
CERTAIN ELEMENTS...SUCH AS HUMIDITY VALUES AND SUSTAINED WIND
SPEEDS...MAY BE APPROXIMATED.





USA.gov is the U.S. government's official web portal to all federal, state and local government web resources and services.